Regional Weather Roundup
Issued by NWS

Home | Current Version | Previous Version | Text Only | Print | Product List | Glossary On
Versions: 1 2 3 4 5 6 7 8 9 10 11 12 13 14 15 16 17 18 19 20 21 22 23 24 25 26 27 28 29 30 31 32 33 34 35 36 37 38 39 40 41 42 43 44 45 46 47 48 49 50
000
ASUS42 KTBW 230618
RWRFL
FLORIDA REGIONAL WEATHER ROUNDUP
NATIONAL WEATHER SERVICE TAMPA BAY RUSKIN FL
200 AM EDT MON OCT 23 2017

NOTE: "FAIR" INDICATES FEW OR NO CLOUDS BELOW 12,000 FEET WITH NO
SIGNIFICANT WEATHER AND/OR OBSTRUCTIONS TO VISIBILITY.

FLZ001>010-012>015-112-114-115-230700-
PANHANDLE FLORIDA

CITY           SKY/WX    TMP DP  RH WIND       PRES   REMARKS
PENSACOLA      CLOUDY    75  69  81 SE15      29.94F
PENSACOLA NAS  CLOUDY    75  70  84 SE14      29.93F
MILTON NAS     CLOUDY    72  50  46 SE14      29.95
CRESTVIEW      LGT RAIN  71  70  96 VRB5      29.99F
DUKE FIELD     FAIR      72  70  94 S6          N/A
VALPARAISO     LGT RAIN  73  70  91 CALM      29.96F
MARY ESTHER    LGT RAIN  73  71  92 S6        29.95F
PANAMA CITY    HVY RAIN  74  73  97 SW7       29.98F FOG
TYNDALL AFB    DRIZZLE   77  74  91 S10       29.99F
APALACHICOLA   LGT RAIN  78  75  90 S9        30.00S

STATION/POSITION SKY/WX   TEMP    WIND        PRES    WAVE   SWELL
                          AIR SEA DIR/SP/G            HT/PER HT/PER
                          (F)     (DEG/KT/KT) (MB)    (FT/S) (FT/S)
30.1N   87.6W                 79  290/ 17/ 19 1012.9F   5/ 7
29.2N   88.2W              79 81  140/  6/  8 1014.4R   5/ 7   5/ 7
28.8N   86.0W              78 81  170/ 16/ 19 1014.6F   8/ 8   3/19
PANAMA CITY BEAC           75 78  160/ 14/ 20 1015.8F
TOWER C                    79     200/ 17/ 18 1016.3R
28.5N   84.5W              80 80  180/ 14/ 16 1015.7F   4/ 7   2/ 7

$$
FLZ011-016>038-118-127-128-134-139-239-230700-
NORTH FLORIDA

CITY           SKY/WX    TMP DP  RH WIND       PRES   REMARKS
MARIANNA       CLOUDY    74  72  93 CALM      30.00F
TALLAHASSEE    MOCLDY    74  73  97 E6        30.01F
PERRY          CLOUDY    74  72  92 SE3       30.04F
LIVE OAK       CLOUDY    77  77 100 E5        30.06F
CROSS CITY     MOCLDY    75  72  89 E5        30.09S
LAKE CITY      CLOUDY    72  72 100 SE9       30.07F
GAINESVILLE    MOCLDY    75  72  90 SE8       30.09F
WILLISTON      CLEAR     77  75  94 E6        30.06F FOG
PALATKA        FAIR      75  75 100 SE5       30.08F
MAYPORT NAS    CLOUDY   N/A N/A N/A SE8       30.09F
JACKSONVILLE   CLOUDY    79  74  84 SE8       30.08F
JAX NAS        CLOUDY    78  75  90 SE6       30.09F
JAX CECIL      CLOUDY    75  75 100 CALM      30.08S
ST AUGUSTINE   PTCLDY    78  75  90 SE8       30.10F
PALM COAST     FAIR      76  73  87 SE6       30.08F

STATION/POSITION SKY/WX   TEMP    WIND        PRES    WAVE   SWELL
                          AIR SEA DIR/SP/G            HT/PER HT/PER
                          (F)     (DEG/KT/KT) (MB)    (FT/S) (FT/S)
SHELL POINT      NOT AVBL
KEATON BEACH               75      90/  6/  7 1016.6F
CEDAR KEY                  78     150/ 13/ 14 1017.6F
FERNANDINA                 77 76  130/  5/  9 1019.8F
30.7N   81.3W                 76                N/A     4/ 8
MAYPORT                    78 77  140/  5/  8 1019.4F
31.4N   80.9W              77 77  120/ 14/ 17 1019.2F   4/ 7   3/ 7
ST AUGUSTINE               79 78  150/ 13/ 15 1018.9F

$$
FLZ040-043>046-052-053-057-058-063-144-230700-
INTERIOR CENTRAL FLORIDA

CITY           SKY/WX    TMP DP  RH WIND       PRES   REMARKS
OCALA          CLOUDY    76  73  91 CALM      30.08S
THE VILLAGES     N/A     77  75  94 MISG      29.98F
LEESBURG       CLOUDY    78  75  90 SE8       30.08F
SANFORD        MOCLDY    76  73  91 SE7       30.08F
ORLANDO INTL   MOCLDY    75  74  96 SE8       30.08F
KISSIMMEE      PTCLDY    76  73  91 SE7       30.09F
WINTER HAVEN     N/A    N/A N/A N/A MISG      30.09F
LAKELAND       CLOUDY    73  70  88 SE7       30.08
BARTOW         FAIR      72  72 100 E6        30.08F
SEBRING        FAIR      76  71  84 E5        30.08S
OKEECHOBEE     CLEAR     72  70  94 CALM      30.08S

$$
FLZ041-047-054-059-064-141-147-230700-
EAST CENTRAL FLORIDA

CITY           SKY/WX    TMP DP  RH WIND       PRES   REMARKS
DAYTONA BEACH  MOCLDY    78  78 100 VRB3      30.09F
DELAND         CLOUDY    75  72  88 SE6       30.08F
JFK SPACE CTR  PTCLDY    78  75  89 SE7       30.08F
CAPE CANAVERAL PTCLDY    79  73  81 SE13      30.08S
PATRICK AFB    CLEAR     80  75  84 SE12      30.08F
MELBOURNE      CLOUDY    81  73  76 SE13      30.08F
VERO BEACH     PTCLDY    79  72  79 SE14      30.08F
FT PIERCE      MOCLDY    80  73  79 SE12      30.08F
STUART         PTCLDY    81  73  78 SE12      30.09F

STATION/POSITION SKY/WX   TEMP    WIND        PRES    WAVE   SWELL
                          AIR SEA DIR/SP/G            HT/PER HT/PER
                          (F)     (DEG/KT/KT) (MB)    (FT/S) (FT/S)
28.5N   80.2W              82 81  120/ 16/ 19 1018.8
TRIDENT PIER               80 80  120/  9/ 13 1020.5F
28.4N   80.5W                 80                N/A     4/ 6
27.5N   80.2W                 81                N/A     5/ 8

$$
FLZ050-056-061-142-242-148-248-149-249-151-251-155-255-
160-260-230700-
WEST CENTRAL FLORIDA

CITY           SKY/WX    TMP DP  RH WIND       PRES   REMARKS
CRYSTAL RIVER  FAIR      77  70  78 SE3       30.06F
INVERNESS      FAIR      75  73  94 SE6       30.07F
BROOKSVILLE    CLOUDY    76  71  85 SE6       30.07F
CLEARWATER AIR FAIR      77  72  83 SE7       30.05F
ST PETE CLEARW MOCLDY    79  73  82 SE8       30.05F
TAMPA INTL     CLOUDY    79  72  79 SE8       30.06F
TAMPA EXEC     MOCLDY    77  72  83 SE3       30.07S
PLANT CITY     CLOUDY    77  72  83 SE6       30.09S
PETER O KNIGHT MOCLDY    77  73  88 SE8       30.06F
ST PETERSBURG  CLOUDY    79  73  82 S16       30.03F
SARASOTA       CLOUDY    76  72  87 SE8       30.04F
VENICE         FAIR      79  75  89 SE8       30.05F

STATION/POSITION SKY/WX   TEMP    WIND        PRES    WAVE   SWELL
                          AIR SEA DIR/SP/G            HT/PER HT/PER
                          (F)     (DEG/KT/KT) (MB)    (FT/S) (FT/S)
CLEARWATER BEACH           79 79  130/  7/ 11 1017.8F
MIDDLE TAMPA BAY           78     150/ 13/ 15 1017.8F
VENICE                     78 81  120/  7/  9 1017.7F

$$
FLZ066-069-070-075>078-162-262-165-265-230700-
SOUTHWEST FLORIDA AND KEYS

CITY           SKY/WX    TMP DP  RH WIND       PRES   REMARKS
PUNTA GORDA    MOCLDY    76  73  91 SE6       30.07F
FT MYERS       CLOUDY    74  74 100 SE8       30.05F
SOUTHWEST INTL CLOUDY    77  75  93 SE8       30.05F
NAPLES         CLOUDY    77  75  93 E6        30.04F
MARCO ISLAND     N/A     77  75  94 E6        30.05F
IMMOKALEE      CLOUDY    75  73  94 CALM      30.07F
MARATHON       PTCLDY    82  74  76 SE12G18   30.03F
KEY WEST NAS   CLOUDY    82  78  88 SE20      30.03F
KEY WEST INTL  NOT AVBL

STATION/POSITION SKY/WX   TEMP    WIND        PRES    WAVE   SWELL
                          AIR SEA DIR/SP/G            HT/PER HT/PER
                          (F)     (DEG/KT/KT) (MB)    (FT/S) (FT/S)
NAPLES                        81  110/  4/  8 1017.5F
DRY TORTUGAS               83     120/ 19/ 21 1016.4F
SAND KEY                   82                 1017.4F
MOLASSES REEF              82 83  100/ 14/ 17 1017.7F

$$
FLZ067-068-071>074-168-172>174-230700-
SOUTHEAST FLORIDA

CITY           SKY/WX    TMP DP  RH WIND       PRES   REMARKS
W PALM BEACH   MOCLDY    81  74  79 SE15      30.08F
FT LAUDER-EXEC PTCLDY    80  76  87 SE15      30.07S
FT LAUDERDALE  MOCLDY    82  76  81 SE16      30.06F
POMPANO BEACH  HVY RAIN  79  73  82 SE16G29   30.07F
PEMBROKE PINES CLEAR     82  74  76 SE14      30.08F
OPA LOCKA      PTCLDY    81  75  82 SE12      30.07F
MIAMI          MOCLDY    82  75  79 SE10      30.07S
WEST KENDALL   PTCLDY    80  74  81 SE8       30.06F
HOMESTEAD      PTCLDY    81  77  88 E10       30.05F

STATION/POSITION SKY/WX   TEMP    WIND        PRES    WAVE   SWELL
                          AIR SEA DIR/SP/G            HT/PER HT/PER
                          (F)     (DEG/KT/KT) (MB)    (FT/S) (FT/S)
PORT EVERGLADES            82     130/ 10/ 15 1018.1F
VIRGINIA KEY               82 82  100/ 10/ 14 1017.7F
LAKE WORTH                 82 82  130/ 19/ 21 1019.3F
FOWEY ROCKS                82 82  110/ 19/ 21 1018.2F
SETTLEMENT POINT           80     110/ 10/ 12 1019.1F

$$




USA.gov is the U.S. government's official web portal to all federal, state and local government web resources and services.